EW5212 Weather Reports


time (UTC)temp
C
wind
direction
speed
KPH
gust
KPH
rain 1hr
cm
rain 24hr
cm
rain mn
cm
humidity
%
barometer
mb
20260901082515 21 0.0 0.0 0.00 0.00 0.00 99 1018.3
20260901081515 21 0.0 0.0 0.00 0.00 0.00 99 1018.3
20260901080516 21 0.0 0.0 0.00 0.00 0.00 99 1018.4
20260901075535 21 0.0 0.0 0.00 0.00 0.00 99 1018.3
20260901074515 21 0.0 0.0 0.00 0.00 0.00 99 1018.3
20260901073515 21 0.0 0.0 0.00 0.00 0.00 99 1018.3
20260901072535 21 0.0 0.0 0.00 0.00 0.00 99 1018.2
20260901071515 21 0.0 0.0 0.00 0.00 0.00 99 1018.4
20260901070515 21 0.0 0.0 0.00 0.00 0.00 99 1018.6
20260901065515 21 0.0 0.0 0.00 0.00 0.00 99 1018.7
20260901064515 21 0.0 0.0 0.00 0.00 0.00 99 1018.8
20260901063517 21 0.0 0.0 0.00 0.00 0.00 99 1018.8
20260901062517 21 0.0 0.0 0.00 0.00 0.00 99 1018.9
20260901061517 21 0.0 0.0 0.00 0.00 0.00 99 1018.9
20260901060517 21 0.0 0.0 0.00 0.00 0.00 99 1019.0
20260901055517 21 0.0 0.0 0.00 0.00 0.00 98 1019.0
20260901054517 22 0.0 0.0 0.00 0.00 0.00 98 1019.1
20260901053537 22 0.0 0.0 0.00 0.00 0.00 98 1019.1
20260901052517 22 0.0 0.0 0.00 0.00 0.00 98 1019.1
20260901051517 22 0.0 0.0 0.00 0.00 0.00 98 1019.3
20260901050517 22 0.0 0.0 0.00 0.00 0.00 98 1019.4
20260901045517 22 0.0 0.0 0.00 0.00 0.00 98 1019.5
20260901044517 22 0.0 0.0 0.00 0.00 0.00 98 1019.5
20260901043517 22 0.0 0.0 0.00 0.00 0.00 98 1019.5
20260901042517 22 0.0 0.0 0.00 0.00 0.00 98 1019.5
20260901041537 22 0.0 0.0 0.00 0.00 0.00 97 1019.4
20260901040537 22 0.0 0.0 0.00 0.00 0.00 97 1019.3
20260901040016 22 0.0 0.0 0.00 0.00 0.00 97 1019.3
20260901035015 23 0.0 0.0 0.00 0.00 0.00 97 1019.3
20260901034016 23 0.0 0.0 0.00 0.00 0.00 97 1019.2
20260901033015 23 0.0 0.0 0.00 0.00 0.00 97 1019.2
20260901032015 23 0.0 0.0 0.00 0.00 0.00 97 1019.2
20260901031015 23 0.0 0.0 0.00 0.00 0.00 96 1019.2
20260901030057 23 0.0 0.0 0.00 0.00 0.00 96 1019.3
20260901025015 23 0.0 0.0 0.00 0.00 0.00 96 1019.4
20260901024015 23 0.0 0.0 0.00 0.00 0.00 96 1019.2
20260901023015 23 0.0 0.0 0.00 0.00 0.00 95 1019.1
20260901022036 24 0.0 0.0 0.00 0.00 0.00 95 1019.4
20260901021015 24 0.0 0.0 0.00 0.00 0.00 95 1019.6
20260901020035 24 0.0 0.0 0.00 0.00 0.00 95 1019.7
20260901015015 24 0.0 0.0 0.00 0.00 0.00 95 1019.5
20260901014016 24 0.0 1.6 0.00 0.00 0.00 94 1019.4
20260901013015 25 0.0 0.0 0.00 0.00 0.00 94 1019.3
20260901012015 25 0.0 0.0 0.00 0.00 0.00 94 1019.2
20260901011015 25 0.0 0.0 0.00 0.00 0.00 94 1019.2
20260901010015 25 0.0 0.0 0.00 0.00 0.00 94 1019.1
20260901005015 25 0.0 0.0 0.00 0.00 0.00 94 1019.1
20260901004015 25 0.0 0.0 0.00 0.00 0.00 93 1019.1
20260901003015 25 0.0 0.0 0.00 0.00 0.00 93 1019.2
20260901002015 25 0.0 0.0 0.00 0.00 0.00 92 1019.1
20260901001015 26 0.0 0.0 0.00 0.00 0.00 92 1019.0
20260901000035 26 0.0 0.0 0.00 0.00 0.00 91 1018.9
20260831235016 26 0.0 0.0 0.00 0.00 0.00 89 1018.8
20260831234016 26 0.0 0.0 0.00 0.00 0.00 89 1018.8
20260831233055 27 0.0 0.0 0.00 0.00 0.00 89 1018.8
20260831232015 27 0.0 0.0 0.00 0.00 0.00 88 1018.8
20260831231015 27 0.0 0.0 0.00 0.00 0.00 87 1018.8
20260831230015 28 0.0 0.0 0.00 0.00 0.00 84 1018.7
20260831225015 29 0.0 0.0 0.00 0.00 0.00 81 1018.7
20260831224015 30 0.0 0.0 0.00 0.00 0.00 82 1018.7
20260831223015 30 0.0 0.0 0.00 0.00 0.00 82 1018.8
20260831222015 29 0.0 0.0 0.00 0.00 0.00 82 1018.8
20260831221015 30 0.0 0.0 0.00 0.00 0.00 80 1018.9
20260831220015 30 0.0 0.0 0.00 0.00 0.00 79 1018.9
20260831215015 30 0.0 0.0 0.00 0.00 0.00 75 1018.9
20260831214035 31 0.0 0.0 0.00 0.00 0.00 73 1018.9
20260831213015 32 0.0 0.0 0.00 0.00 0.00 71 1018.7
20260831212055 33 0.0 0.0 0.00 0.00 0.00 67 1018.8
20260831211015 32 0.0 3.2 0.00 0.00 0.00 67 1018.6
20260831210015 33 0.0 6.4 0.00 0.00 0.00 64 1018.7
20260831205016 33 0.0 1.6 0.00 0.00 0.00 68 1018.8
20260831204015 33 0.0 1.6 0.00 0.00 0.00 68 1018.8
20260831203015 32 0.0 1.6 0.00 0.00 0.00 68 1018.8
20260831202015 32 0.0 1.6 0.00 0.00 0.00 66 1018.8
20260831201015 33 45 1.6 3.2 0.00 0.00 0.00 64 1018.9
20260831200035 33 45 1.6 3.2 0.00 0.00 0.00 63 1018.9
20260831195015 33 0.0 1.6 0.00 0.00 0.00 66 1019.0
20260831194015 33 45 1.6 3.2 0.00 0.00 0.00 62 1019.0
20260831193015 34 225 1.6 6.4 0.00 0.00 0.00 65 1019.1
20260831192015 33 338 1.6 3.2 0.00 0.00 0.00 65 1019.1
20260831191017 33 0.0 3.2 0.00 0.00 0.00 63 1019.1
20260831190017 33 0 1.6 1.6 0.00 0.00 0.00 67 1019.3
20260831185017 33 45 1.6 3.2 0.00 0.00 0.00 64 1019.4
20260831184017 33 0.0 3.2 0.00 0.00 0.00 65 1019.5
20260831183017 33 45 1.6 1.6 0.00 0.00 0.00 63 1019.5
20260831182017 33 0.0 1.6 0.00 0.00 0.00 66 1019.5
20260831181038 33 45 1.6 4.8 0.00 0.00 0.00 67 1019.6
20260831180037 33 0.0 3.2 0.00 0.00 0.00 68 1019.7
20260831175037 33 0.0 1.6 0.00 0.00 0.00 70 1019.7
20260831174017 32 0.0 1.6 0.00 0.00 0.00 67 1019.9
20260831173017 33 113 1.6 4.8 0.00 0.00 0.00 67 1019.9
20260831172018 33 23 1.6 3.2 0.00 0.00 0.00 68 1020.0
20260831171037 32 0.0 0.0 0.00 0.00 0.00 69 1020.1
20260831170017 32 0.0 1.6 0.00 0.00 0.00 68 1020.1
20260831165017 32 0.0 1.6 0.00 0.00 0.00 71 1020.1
20260831164015 32 45 1.6 1.6 0.00 0.00 0.00 71 1020.2
20260831163018 32 0.0 1.6 0.00 0.00 0.00 72 1020.4
20260831162017 31 68 1.6 3.2 0.00 0.00 0.00 72 1020.4
20260831161017 32 0.0 3.2 0.00 0.00 0.00 69 1020.5
20260831160037 31 0.0 1.6 0.00 0.00 0.00 73 1020.6
20260831155016 31 315 1.6 1.6 0.00 0.00 0.00 74 1020.4
20260831154017 31 293 1.6 3.2 0.00 0.00 0.00 74 1020.5
20260831153037 31 0.0 1.6 0.00 0.00 0.00 72 1020.5
20260831152017 31 90 1.6 4.8 0.00 0.00 0.00 73 1020.5
20260831151017 30 0.0 4.8 0.00 0.00 0.00 74 1020.5
20260831150017 30 0.0 3.2 0.00 0.00 0.00 76 1020.3
20260831145037 29 0.0 0.0 0.00 0.00 0.00 78 1020.3
20260831144037 29 0.0 0.0 0.00 0.00 0.00 80 1020.4
20260831143016 28 45 1.6 1.6 0.00 0.00 0.00 79 1020.4
20260831142017 28 45 1.6 4.8 0.00 0.00 0.00 80 1020.4
20260831141037 28 0.0 1.6 0.00 0.00 0.00 81 1020.4
20260831140017 28 293 1.6 3.2 0.00 0.00 0.00 82 1020.3
20260831135019 28 23 1.6 4.8 0.00 0.00 0.00 80 1020.4
20260831134017 27 23 1.6 6.4 0.00 0.00 0.00 80 1020.5
20260831133017 27 270 1.6 3.2 0.00 0.00 0.00 83 1020.4
20260831132017 27 0.0 3.2 0.00 0.00 0.00 85 1020.6
20260831131017 26 270 1.6 4.8 0.00 0.00 0.00 87 1020.4
20260831130057 26 248 1.6 4.8 0.00 0.00 0.00 87 1020.4
20260831125017 25 0.0 3.2 0.00 0.00 0.00 91 1020.3
20260831124016 24 248 1.6 6.4 0.00 0.00 0.00 92 1020.4
20260831123037 23 0.0 4.8 0.00 0.00 0.00 95 1020.5
20260831122017 22 0.0 4.8 0.00 0.00 0.00 97 1020.3
20260831121017 22 0.0 0.0 0.00 0.00 0.00 99 1020.2
20260831120017 22 0.0 1.6 0.00 0.00 0.00 100 1020.0
20260831115017 21 0.0 0.0 0.00 0.00 0.00 99 1020.0
20260831114016 21 0.0 0.0 0.00 0.00 0.00 99 1020.0
20260831113016 21 0.0 0.0 0.00 0.00 0.00 99 1020.0
20260831112016 21 0.0 0.0 0.00 0.00 0.00 98 1019.8
20260831111036 21 0.0 0.0 0.00 0.00 0.00 98 1019.7
20260831110016 21 0.0 0.0 0.00 0.00 0.00 98 1019.6
20260831105017 21 0.0 0.0 0.00 0.00 0.00 98 1019.6
20260831104017 21 0.0 0.0 0.00 0.00 0.00 98 1019.6
20260831103016 21 0.0 0.0 0.00 0.00 0.00 98 1019.5
20260831102016 21 0.0 0.0 0.00 0.00 0.00 98 1019.6
20260831101017 21 0.0 0.0 0.00 0.00 0.00 97 1019.5
20260831100056 21 0.0 0.0 0.00 0.00 0.00 97 1019.2
20260831095016 21 0.0 0.0 0.00 0.00 0.00 97 1019.3
20260831094016 22 0.0 0.0 0.00 0.00 0.00 97 1019.3
20260831093016 22 0.0 0.0 0.00 0.00 0.00 96 1019.3
20260831092016 22 0.0 0.0 0.00 0.00 0.00 96 1019.3
20260831091016 22 0.0 0.0 0.00 0.00 0.00 96 1019.3
20260831090016 22 0.0 0.0 0.00 0.00 0.00 95 1019.4
20260831085056 22 0.0 0.0 0.00 0.00 0.00 95 1019.3
20260831084016 23 0.0 0.0 0.00 0.00 0.00 94 1019.3